User: anonymous   Login
Location: Newark
(50.0306°N, 2.3272°E)
Time: 10:17:53
(UTC+00:00)
Language:

SR - Orbit

View from above orbital plane
View from above orbital plane
View from above satellite
View from above satellite

Ground track
Ground track

The orbit data is extracted from the following two-line orbital elements,

1    46U 60007B   19349.93202416 -.00000059 +00000-0 +11759-4 0  9998
2    46 066.6886 185.0965 0217398 268.7700 088.8496 14.49262672112376
Epoch (UTC): 15 December 2019 22:22:06
Eccentricity: 0.0217398
inclination: 66.6886°
perigee height: 573 km
apogee height: 882 km
right ascension of ascending node: 185.0965°
argument of perigee: 268.7700°
revolutions per day: 14.49262672
mean anomaly at epoch: 88.8496°
orbit number at epoch: 11237

The dashed part of the orbit path shows where the satellite is in the earth's shadow,  

DLR